Location: Unspecified
(47.9110°N, 14.3980°E)
Time: 21:31:55
(UTC+00:00)

Cosmos 1238 Rocket - Pass Details

Date: 06 August 2020
Orbit: 375 x 1027 km, 82.9° (Epoch: 21 September)

Event Time Altitude Azimuth Distance (km) Brightness Sun altitude
Exits shadow 20:42:18 53° 90° (E) 497 2.3 -17.9°
Drops below altitude 10° 20:45:10 10° 18° (NNE) 1,410 5.4 -18.2°
Sets 20:47:07 0° 13° (NNE) 2,257 6.6 -18.4°
